Regional Weather Roundup
Issued by NWS Upton, NY

Current Version | Previous Version | Graphics & Text | Print | Product List | Glossary Off
Versions: 1 2 3 4 5 6 7 8 9 10 11 12 13 14 15 16 17 18 19 20 21 22 23 24 25 26 27

000
ASUS41 KOKX 210805
RWROKX

Regional Weather Roundup
National Weather Service New York NY
400 AM EDT MON MAY 21 2018

Note: "FAIR" indicates few or no clouds below 12,000 feet with no
significant weather and/or obstructions to visibility.

NYZ071-072-176-178-NJZ106-104-210900-
New York City Metro Area

CITY           SKY/WX    TMP DP  RH WIND       PRES   REMARKS
Central Park   FAIR      62  53  72 CALM      30.14R
Bronx Bot Gard   N/A     57  52  82 CALM      30.14R
Bronx Lehman C   N/A     61  54  77 N3          N/A
LaGuardia Arpt FAIR      63  53  70 N5        30.10R
Queens College   N/A     63  54  72 N5          N/A
Kennedy Intl   FAIR      59  54  83 NE3       30.11R
Breezy Point     N/A     61 N/A N/A NW6         N/A
Brooklyn Coll    N/A     63  54  72 W5          N/A
Staten Island    N/A     61  54  77 N3          N/A
Newark/Liberty FAIR      61  54  77 NW7       30.11R
Teterboro      FAIR      58  53  84 N3        30.10R
$$

NYZ177-179-078>081-210900-
Long Island New York

CITY           SKY/WX    TMP DP  RH WIND       PRES   REMARKS
Jones Beach      N/A     63 N/A N/A N7          N/A
Wantagh          N/A     61  55  82 N5          N/A
Hempstead        N/A     61  55  82 N3        30.13R
Matinecock Pt    N/A     61 N/A N/A NW6         N/A
Farmingdale    FAIR      59  54  83 N3        30.11R
MacArthur/ISP  FAIR      57  53  86 NW6       30.10R
Stony Brook      N/A     59  50  72 N5          N/A
Shirley        FAIR      58  54  86 N7        30.10R
Mt Sinai Harb    N/A    N/A N/A N/A NW3         N/A
Westhampton    FAIR      56  51  84 N7        30.10R
East Hampton   FAIR      57  53  88 NW5       30.08R
Southold         N/A     59  52  77 NW10        N/A
Montauk          N/A     57  53  86 NW5       30.09R
$$

NYZ052-065-067-210900-
Hudson Valley

CITY           SKY/WX    TMP DP  RH WIND       PRES   REMARKS
White Plains   FAIR      54  51  90 CALM      30.11R
Larchmont Harb   N/A     61 N/A N/A NW6         N/A
Croton On Huds   N/A     55 N/A N/A MISG        N/A
Somers           N/A     54  52  94 N1          N/A
Brewster         N/A     55  50  82 N6          N/A
Newburgh       CLEAR     52  52 100 CALM      30.13R
Montgomery     FAIR      50  49  96 S3        30.11R
Otisville        N/A     50  50 100 SE2         N/A
Warwick          N/A     50  50 100 SE2         N/A
Suffern          N/A     57  54  88 N3          N/A
Poughkeepsie   FAIR      49  48  97 CALM      30.11R FOG
Albany         FAIR      52  48  86 CALM      30.13R
$$

NJZ001-105-106-008-010-013-015-019>022-104-210900-
New Jersey

CITY           SKY/WX    TMP DP  RH WIND       PRES   REMARKS
Newark/Liberty FAIR      61  54  77 NW7       30.11R
Teterboro      FAIR      58  53  84 N3        30.10R
Caldwell       FAIR      55  54  96 CALM      30.12R
Somerville     FAIR      52  52 100 CALM      30.11R FOG
Linden         NOT AVBL
Perth Amboy      N/A     61 N/A N/A W5          N/A
Sussex         FOG       50  50 100 CALM      30.13R VSB 1
Andover          N/A     52  52 100 CALM      30.14R
Trenton        FAIR      59  55  87 NW3       30.12R
Millville      FAIR      65  59  81 NE7       30.10S
Atlantic City  MOCLDY    65  59  81 N9        30.11R
Wrightstown    FAIR      59  55  87 CALM      30.09R
Toms River     FAIR      60  56  86 N3        30.12R
Belmar         FAIR      59  55  87 W3        30.13R
$$

PAZ047>061-062-071-210900-
Eastern Pennsylvania

CITY           SKY/WX    TMP DP  RH WIND       PRES   REMARKS
Philadelphia   FAIR      65  55  70 N9        30.13R
Allentown      FAIR      55  50  83 CALM      30.13R
Scranton       MOCLDY    54  53  97 CALM      30.15R
$$

CTZ002-004>006-009-010-012-RIZ004-006-007-MAZ004-011-015-210900-
Southern New England

 In CT

CITY           SKY/WX    TMP DP  RH WIND       PRES   REMARKS
Bradley Intl   FAIR      53  51  93 NW8       30.10R
Hartford       FAIR      58  51  78 NW3       30.09R
Danbury        FAIR      58  50  75 CALM      30.12R
Wtrbury/Oxford FAIR      54  49  83 N9        30.11R
Norwalk Harbor   N/A     57 N/A N/A MISG        N/A
Bridgeport     FAIR      60  50  69 N5        30.10R
Meriden        FAIR      57  50  77 VRB3      30.09R
New Haven      FAIR      59  53  80 W5        30.10R
Chester        FAIR      57  54  88 NW6       30.09R
Groton         FAIR      58  55  90 N6        30.07R
Willimantic    FAIR      54  53  97 NE3       30.09R

 In RI

CITY           SKY/WX    TMP DP  RH WIND       PRES   REMARKS
Providence     FAIR      57  54  89 N6        30.08R
Block Island   MOCLDY    59  58  96 N6        30.08R
Westerly       CLOUDY    59  58  96 NE5       30.08R

In MA

CITY           SKY/WX    TMP DP  RH WIND       PRES   REMARKS
Boston         FAIR      58  51  78 NW7       30.08R
Worcester      FAIR      54  50  86 N3        30.10R
Westfield      FAIR      51  51 100 CALM      30.10R
Provincetown   FAIR      54  51  90 N7        30.07R
Nantucket      FAIR      58  54  86 N14       30.04R
$$

ANZ330-335-338-340-345-350-353-355-210900-
Coastal Marine Observations


STATION/POSITION TIME  SKY/WX   TEMP    WIND        PRES    VSBY  WAVE
                                AIR SEA DIR/SP/G                  HT/PER
                 (UTC)          (F)     (DEG/KT/KT) (MB)    (MI)  (FT/S)
NY Harb Entrance 0750            57 54  330/  4/  6 1019.4          3/ 8
20 S Fire Island 0750            58 51  330/  4/  6 1019.0          4/ 8
23 SSW Montauk P 0750            54 51  300/  6/  8 1018.3          4/ 8
15 E Barnegat Li 0730               55                N/A           4/ 8
Hudson Canyon    0750            56 51  350/ 10/ 10 1017.9          5/ 9
Kings Point      0748               56                N/A
Execution Rocks  NOT AVBL
Western LI Sound NOT AVBL
Central LI Sound 0745            56     320/  6/  8   N/A           0
Robbins Reef     0748            63     330/  7/  8 1020.0
$$


>>>>>>>>>>>>>>>>>>>>>>>>>>>> KEY <<<<<<<<<<<<<<<<<<<<<<<<<<<
>                                                          <
>     SKY/WX - Sky Condition/Present Weather               <
>     TMP    - Temperature in Fahrenheit                   <
>     DP     - Dew Point in Fahrenheit                     <
>     RH     - Relative Humidity in Percent                <
>     WIND   - Direction (from) and Speed in MPH           <
>     PRES   - Mean Sea Level Pressure (inches of Hg)      <
>     WCI    - Wind Chill Index                            <
>     VSB    - Visibility in Miles                         <
>     HX     - Heat Index                                  <
>     TC     - Temperature in Celsius                      <
>     VRB    - Varibale Wind Direction                     <
>                                                          <
>>>>>>>>>>>>>>>>>>>>>>>>>>>> KEY <<<<<<<<<<<<<<<<<<<<<<<<<<<




USA.gov is the U.S. government's official web portal to all federal, state and local government web resources and services.